#timestamp,LO_Frequency,Hit,StdDev 
1536890415.0,286047001.9,N
1536890415.9,286047001.9,N
1536890435.8,286047002.0,Y
1536890455.6,286046999.5,P
1536890475.5,286046998.9,N
1536890495.3,286046998.9,N
1536890515.1,286046999.4,N
1536890535.9,286046999.1,N
1536890555.7,286046996.6,N
1536890575.5,286046999.4,N
1536890595.4,286046995.2,Y
1536890615.2,286046997.6,P
1536890635.1,286046995.6,P
1536890636.0,286046995.6,N
1536890655.8,286046997.6,N
1536890675.6,286046996.8,N
1536890695.5,286046997.2,N
1536890715.3,286046997.5,N
1536890735.2,286046997.7,N
1536890755.9,286046996.5,Y
1536890775.7,286047000.5,P
1536890795.6,286047002.7,N
1536890815.4,286047002.5,N
1536890835.2,286047002.7,N
1536890855.1,286047002.3,N
1536890856.0,286047002.3,N
1536890875.8,286047002.6,N
1536890895.7,286047002.6,N
1536890915.5,286047004.4,N
1536890935.3,286047004.0,N
1536890955.2,286047001.8,N
1536890975.9,286046999.8,N
1536890995.7,286047000.2,N
1536891015.6,286046999.7,N
1536891035.4,286047002.4,N
1536891055.3,286046999.9,N
1536891075.1,286047001.7,N
1536891076.0,286047001.7,N
1536891095.8,286047004.4,N
1536891115.7,286047004.0,N
1536891135.5,286047002.7,N
1536891155.3,286047001.8,N
1536891175.2,286047001.8,N
1536891195.0,286047003.0,N
1536891195.9,286047003.0,N
1536891215.8,286047004.4,N
1536891235.6,286047003.3,N
1536891255.4,286047001.7,N
1536891275.3,286047001.7,N
1536891295.1,286047002.1,N
1536891315.8,286047004.4,Y
1536891335.7,286047000.4,P
1536891355.5,286047000.8,N
1536891375.4,286046998.4,N
1536891395.2,286046996.5,N
1536891415.0,286046998.9,N
1536891415.9,286046998.9,N
1536891435.8,286047000.8,N
1536891455.6,286047000.3,N
1536891475.4,286046999.7,N
1536891495.3,286047002.6,N
1536891515.1,286047001.5,N
1536891535.9,286047000.1,N
1536891555.7,286047000.0,N
1536891575.5,286047002.7,N
1536891595.4,286047000.1,N
1536891615.2,286047002.8,N
1536891635.0,286047000.9,N
1536891635.9,286047000.9,N
1536891655.8,286046996.6,N
1536891675.6,286046997.0,N
1536891695.5,286046999.6,N
1536891715.3,286046998.8,N
1536891735.1,286046998.7,N
1536891755.9,286047001.1,N
1536891775.7,286046999.7,N
1536891795.5,286047002.1,N
1536891815.4,286046999.9,N
1536891835.2,286047002.7,N
1536891855.1,286047002.4,N
1536891856.0,286047002.4,N
1536891875.8,286047002.8,N
1536891895.6,286047002.5,N
1536891915.5,286047001.6,N
1536891935.3,286047001.9,N
1536891955.1,286047003.6,N
1536891975.9,286047005.7,Y
1536891995.7,286047003.7,P
1536892015.6,286047003.4,N
1536892035.4,286047003.1,N
1536892055.2,286047003.7,Y
1536892075.1,286047000.5,P
1536892076.0,286047000.5,N
1536892095.8,286046999.8,N
1536892115.7,286047001.3,N
1536892135.5,286047004.0,Y
1536892155.3,286047002.0,P
1536892175.2,286047002.4,P
1536892195.0,286047002.0,P
1536892195.9,286047002.0,Y
1536892215.7,286047007.5,P
1536892235.6,286047003.2,N
1536892255.4,286047001.7,N
1536892275.3,286047001.3,N
1536892295.1,286047001.8,N
1536892296.0,286047001.8,N
1536892315.8,286047000.0,N
1536892335.7,286047000.6,N
1536892355.5,286046998.8,N
1536892375.3,286046999.1,N
1536892395.2,286046996.8,N
1536892415.0,286046999.1,N
1536892415.9,286046999.1,N
1536892435.8,286046999.4,N
1536892455.6,286046998.6,N
1536892475.4,286047000.8,N
1536892495.3,286047000.7,N
1536892515.1,286047000.8,N
1536892535.8,286046999.1,N
1536892555.7,286046999.5,N
1536892575.5,286046999.1,N
1536892595.4,286046996.7,N
1536892615.2,286046996.5,N
1536892635.0,286046996.6,N
1536892635.9,286046996.6,N
1536892655.8,286046997.1,N
1536892675.6,286046998.8,N
1536892695.4,286046999.3,N
1536892715.3,286046999.6,N
1536892735.1,286046999.2,N
1536892755.9,286046999.1,N
1536892775.7,286046998.3,N
1536892795.5,286047000.7,N
1536892815.4,286047000.8,N
1536892835.2,286046999.6,N
1536892855.0,286046997.2,N
1536892855.9,286046997.2,N
1536892875.8,286046998.6,N
1536892895.6,286047000.1,N
1536892915.4,286047002.4,N
1536892935.3,286047001.9,N
1536892955.1,286047002.3,N
1536892975.9,286047002.2,N
1536892995.7,286047004.4,N
1536893015.5,286047004.1,N
1536893035.4,286047003.6,N
1536893055.2,286047003.1,N
1536893075.0,286047005.4,N
1536893075.9,286047005.4,N
1536893095.8,286047002.9,N
1536893115.6,286047005.6,N
1536893135.5,286047005.7,N
1536893155.3,286047005.1,N
1536893175.1,286047005.7,N
1536893195.9,286047005.0,N
1536893215.7,286047005.8,N
1536893235.5,286047004.7,N
1536893255.4,286047007.1,N
1536893275.2,286047009.1,Y
1536893295.1,286047005.6,P
1536893296.0,286047005.6,P
1536893315.8,286047005.6,P
1536893335.6,286047003.5,N
1536893355.5,286047004.3,Y
1536893375.3,286046999.4,P
1536893395.2,286046996.9,N
1536893415.9,286046996.5,N
1536893435.7,286046999.5,N
1536893455.6,286046996.5,N
1536893475.4,286046996.6,N
1536893495.2,286046999.4,N
1536893515.1,286046998.4,N
1536893516.0,286046998.4,N
1536893535.8,286047000.5,N
1536893555.7,286047000.4,N
1536893575.5,286046998.2,N
1536893595.3,286046998.9,N
1536893615.2,286046999.1,N
1536893635.9,286046999.1,N
1536893655.7,286046999.6,N
1536893675.6,286046999.1,N
1536893695.4,286046996.5,N
1536893715.2,286046997.1,N
1536893735.1,286046995.7,N
1536893736.0,286046995.7,N
1536893755.8,286046993.4,Y
1536893775.7,286046996.6,P
1536893795.5,286046996.5,P
1536893815.3,286046997.6,N
1536893835.2,286046995.5,Y
1536893855.0,286046998.2,P
1536893855.9,286046998.2,P
1536893875.8,286046998.1,P
1536893895.6,286047000.8,N
1536893915.4,286047001.1,N
1536893935.3,286047000.4,N
1536893955.1,286046999.7,N
1536893975.8,286047002.2,N
1536893995.7,286047001.4,N
